Location: Plum
(40.5000°N, 79.7500°W)
Time: 22:55:04
(UTC-05:00)

MOZ.5/SAFIR/RUBIN 5/SL-8 - Visible Passes

Search period start: 13 February 2016 00:00
Search period end: 23 February 2016 00:00
Orbit: 680 x 706 km, 97.9° (Epoch: 13 February)

Date Brightness Start Highest point End Pass type
(mag) Time Alt. Az. Time Alt. Az. Time Alt. Az.
13 Feb 6.8 18:46:27 10° NW 18:48:28 13° WNW 18:50:28 10° W visible
15 Feb 6.5 18:27:33 10° NNW 18:30:47 18° WNW 18:34:00 10° WSW visible
18 Feb 6.9 18:51:00 10° NW 18:52:24 11° WNW 18:53:48 10° WNW visible
20 Feb 6.6 18:31:45 10° NNW 18:34:43 17° WNW 18:37:40 10° WSW visible
